KRE23 SPJC-SPZO

Flight info

Callsign KRE23
Flight time 0h 56m
Altitude 33000
Route JCL DCT LPA DCT AND DCT ZCO
Aircraft B722/M-SDFGHRWY/C

Departure

Time 2026-04-27 13:43
Airport Jorge Chávez International Airport (SPJC)

Arrival

Time 2026-04-27 14:40
Airport Alejandro Velasco Astete International Airport (SPZO)
Time Latitude Longitude Altitude Speed Heading
2026-04-27 13:07 -12.02824 -77.10735 95 ft 0 kts 122°
2026-04-27 13:21 -12.02820 -77.10742 95 ft 2 kts 121°
2026-04-27 13:21 -12.02812 -77.10756 96 ft 2 kts 119°
2026-04-27 13:21 -12.02804 -77.10771 96 ft 2 kts 115°
2026-04-27 13:22 -12.02798 -77.10787 97 ft 2 kts 109°
2026-04-27 13:22 -12.02794 -77.10799 96 ft 2 kts 101°
2026-04-27 13:22 -12.02794 -77.10805 95 ft 2 kts 95°
2026-04-27 13:22 -12.02798 -77.10820 96 ft 2 kts 42°
2026-04-27 13:23 -12.02808 -77.10823 97 ft 1 kts 351°
2026-04-27 13:23 -12.02810 -77.10822 97 ft 0 kts 346°
2026-04-27 13:35 -12.02794 -77.10831 96 ft 10 kts 333°
2026-04-27 13:36 -12.02703 -77.10877 95 ft 16 kts 334°
2026-04-27 13:36 -12.02592 -77.10932 98 ft 19 kts 334°
2026-04-27 13:36 -12.02494 -77.11027 96 ft 21 kts 298°
2026-04-27 13:36 -12.02389 -77.11124 96 ft 21 kts 336°
2026-04-27 13:37 -12.02246 -77.11191 93 ft 24 kts 334°
2026-04-27 13:37 -12.02083 -77.11273 89 ft 28 kts 334°
2026-04-27 13:37 -12.01896 -77.11366 84 ft 32 kts 335°
2026-04-27 13:37 -12.01688 -77.11470 77 ft 34 kts 334°
2026-04-27 13:38 -12.01466 -77.11580 70 ft 37 kts 334°
2026-04-27 13:38 -12.01233 -77.11694 67 ft 38 kts 334°
2026-04-27 13:38 -12.00995 -77.11811 62 ft 39 kts 334°
2026-04-27 13:38 -12.00762 -77.11926 62 ft 31 kts 334°
2026-04-27 13:39 -12.00680 -77.12015 60 ft 14 kts 265°
2026-04-27 13:39 -12.00690 -77.12051 56 ft 0 kts 244°
2026-04-27 13:39 -12.00691 -77.12051 56 ft 0 kts 244°
2026-04-27 13:39 -12.00691 -77.12052 56 ft 0 kts 244°
2026-04-27 13:40 -12.00701 -77.12071 58 ft 8 kts 234°
2026-04-27 13:40 -12.00784 -77.12109 56 ft 15 kts 186°
2026-04-27 13:40 -12.00836 -77.12097 54 ft 0 kts 154°
2026-04-27 13:42 -12.00875 -77.12077 56 ft 21 kts 154°
2026-04-27 13:42 -12.01215 -77.11912 63 ft 85 kts 154°
2026-04-27 13:43 -12.01897 -77.11574 64 ft 133 kts 153°
2026-04-27 13:43 -12.02825 -77.11128 294 ft 148 kts 156°
2026-04-27 13:43 -12.03720 -77.10705 873 ft 141 kts 158°
2026-04-27 13:43 -12.04616 -77.10228 1245 ft 151 kts 148°
2026-04-27 13:44 -12.05442 -77.09589 1773 ft 147 kts 137°
2026-04-27 13:44 -12.06213 -77.08894 2171 ft 153 kts 139°
2026-04-27 13:44 -12.07030 -77.08158 2574 ft 156 kts 136°
2026-04-27 13:44 -12.07765 -77.07377 3091 ft 151 kts 133°
2026-04-27 13:45 -12.08520 -77.06603 3457 ft 155 kts 140°
2026-04-27 13:45 -12.09348 -77.05886 3845 ft 157 kts 138°
2026-04-27 13:45 -12.10177 -77.05148 4241 ft 158 kts 138°
2026-04-27 13:45 -12.11004 -77.04407 4635 ft 158 kts 139°
2026-04-27 13:46 -12.11823 -77.03681 5009 ft 157 kts 139°
2026-04-27 13:46 -12.12634 -77.02963 5378 ft 156 kts 139°
2026-04-27 13:46 -12.13446 -77.02245 5751 ft 153 kts 138°
2026-04-27 13:46 -12.14289 -77.01487 5895 ft 175 kts 139°
2026-04-27 13:47 -12.15309 -77.00585 5957 ft 212 kts 139°
2026-04-27 13:47 -12.16515 -76.99515 6092 ft 247 kts 139°
2026-04-27 13:47 -12.17837 -76.98207 6202 ft 283 kts 129°
2026-04-27 13:47 -12.18995 -76.96444 6286 ft 317 kts 119°
2026-04-27 13:48 -12.20029 -76.94329 6332 ft 348 kts 115°
2026-04-27 13:48 -12.21228 -76.92074 6460 ft 372 kts 127°
2026-04-27 13:48 -12.22938 -76.90163 7369 ft 365 kts 136°
2026-04-27 13:48 -12.24836 -76.88417 7393 ft 374 kts 139°
2026-04-27 13:49 -12.26806 -76.86664 7651 ft 379 kts 139°
2026-04-27 13:49 -12.28620 -76.84693 7869 ft 384 kts 124°
2026-04-27 13:49 -12.29781 -76.82216 8114 ft 389 kts 112°
2026-04-27 13:49 -12.30840 -76.79668 8462 ft 389 kts 115°
2026-04-27 13:50 -12.31973 -76.77163 9084 ft 389 kts 115°
2026-04-27 13:50 -12.33116 -76.74638 9716 ft 394 kts 115°
2026-04-27 13:50 -12.34247 -76.72118 10378 ft 394 kts 115°
2026-04-27 13:50 -12.35391 -76.69584 11067 ft 393 kts 115°
2026-04-27 13:51 -12.36533 -76.67051 11786 ft 392 kts 115°
2026-04-27 13:51 -12.37678 -76.64525 12509 ft 390 kts 115°
2026-04-27 13:51 -12.38819 -76.62008 13254 ft 389 kts 115°
2026-04-27 13:51 -12.39958 -76.59506 14004 ft 387 kts 115°
2026-04-27 13:52 -12.41093 -76.57012 14684 ft 386 kts 115°
2026-04-27 13:52 -12.42228 -76.54538 15491 ft 381 kts 115°
2026-04-27 13:52 -12.43346 -76.52116 16437 ft 373 kts 115°
2026-04-27 13:52 -12.44429 -76.49735 17411 ft 364 kts 114°
2026-04-27 13:53 -12.46506 -76.45186 19299 ft 345 kts 114°
2026-04-27 13:53 -12.47519 -76.42999 20185 ft 335 kts 114°
2026-04-27 13:53 -12.48503 -76.40893 21107 ft 322 kts 115°
2026-04-27 13:54 -12.49457 -76.38869 22047 ft 309 kts 115°
2026-04-27 13:54 -12.50367 -76.36937 23010 ft 293 kts 114°
2026-04-27 13:54 -12.51227 -76.35120 23951 ft 275 kts 114°
2026-04-27 13:54 -12.52035 -76.33412 24529 ft 265 kts 115°
2026-04-27 13:55 -12.52841 -76.31721 24888 ft 266 kts 114°
2026-04-27 13:55 -12.53658 -76.30000 24958 ft 280 kts 115°
2026-04-27 13:55 -12.54531 -76.28155 24984 ft 297 kts 114°
2026-04-27 13:55 -12.55454 -76.26197 25042 ft 314 kts 115°
2026-04-27 13:56 -12.56428 -76.24132 25090 ft 331 kts 115°
2026-04-27 13:56 -12.57452 -76.21951 25135 ft 349 kts 115°
2026-04-27 13:56 -12.58527 -76.19649 25172 ft 367 kts 115°
2026-04-27 13:56 -12.59650 -76.17234 25208 ft 385 kts 114°
2026-04-27 13:57 -12.60824 -76.14702 25232 ft 403 kts 114°
2026-04-27 13:57 -12.62054 -76.12054 25254 ft 420 kts 114°
2026-04-27 13:57 -12.63325 -76.09297 25280 ft 437 kts 114°
2026-04-27 13:57 -12.64620 -76.06494 25655 ft 441 kts 114°
2026-04-27 13:58 -12.65928 -76.03663 26216 ft 441 kts 114°
2026-04-27 13:58 -12.67244 -76.00814 26432 ft 446 kts 114°
2026-04-27 13:58 -12.68572 -75.97928 26736 ft 448 kts 114°
2026-04-27 13:58 -12.69903 -75.95036 27053 ft 451 kts 114°
2026-04-27 13:59 -12.71240 -75.92118 27334 ft 453 kts 114°
2026-04-27 13:59 -12.72581 -75.89193 27639 ft 456 kts 114°
2026-04-27 13:59 -12.73934 -75.86240 27948 ft 458 kts 114°
2026-04-27 13:59 -12.75266 -75.83321 28218 ft 460 kts 114°
2026-04-27 14:00 -12.76617 -75.80345 28506 ft 462 kts 114°
2026-04-27 14:00 -12.77982 -75.77356 28800 ft 465 kts 114°
2026-04-27 14:00 -12.79354 -75.74349 29093 ft 466 kts 114°
2026-04-27 14:00 -12.80731 -75.71335 29347 ft 469 kts 114°
2026-04-27 14:01 -12.82113 -75.68297 29608 ft 471 kts 114°
2026-04-27 14:01 -12.83507 -75.65246 29907 ft 473 kts 114°
2026-04-27 14:01 -12.84904 -75.62181 30149 ft 476 kts 114°
2026-04-27 14:01 -12.86308 -75.59106 30400 ft 477 kts 114°
2026-04-27 14:02 -12.87694 -75.56057 30616 ft 479 kts 114°
2026-04-27 14:02 -12.89103 -75.52956 30826 ft 481 kts 114°
2026-04-27 14:02 -12.90510 -75.49841 31019 ft 483 kts 114°
2026-04-27 14:02 -12.91923 -75.46712 31247 ft 485 kts 114°
2026-04-27 14:03 -12.93336 -75.43572 31476 ft 486 kts 114°
2026-04-27 14:03 -12.94750 -75.40420 31678 ft 488 kts 114°
2026-04-27 14:03 -12.96164 -75.37250 31898 ft 490 kts 114°
2026-04-27 14:03 -12.97578 -75.34069 32095 ft 491 kts 114°
2026-04-27 14:04 -12.98996 -75.30870 32301 ft 493 kts 114°
2026-04-27 14:04 -13.00408 -75.27670 32489 ft 494 kts 114°
2026-04-27 14:04 -13.01805 -75.24492 32672 ft 496 kts 114°
2026-04-27 14:04 -13.03223 -75.21263 32854 ft 497 kts 114°
2026-04-27 14:05 -13.04641 -75.18022 33033 ft 499 kts 114°
2026-04-27 14:05 -13.06055 -75.14768 33228 ft 500 kts 113°
2026-04-27 14:05 -13.07265 -75.11426 33373 ft 501 kts 107°
2026-04-27 14:06 -13.09210 -75.04500 33422 ft 510 kts 101°
2026-04-27 14:06 -13.10180 -74.97241 33442 ft 517 kts 97°
2026-04-27 14:07 -13.11093 -74.89984 33453 ft 516 kts 97°
2026-04-27 14:07 -13.12050 -74.82686 33453 ft 516 kts 97°
2026-04-27 14:08 -13.13046 -74.75383 33457 ft 516 kts 97°
2026-04-27 14:08 -13.14463 -74.68170 33452 ft 517 kts 107°
2026-04-27 14:09 -13.17093 -74.61349 33450 ft 518 kts 113°
2026-04-27 14:09 -13.19958 -74.54563 33450 ft 518 kts 113°
2026-04-27 14:10 -13.22855 -74.47802 33458 ft 518 kts 113°
2026-04-27 14:10 -13.25768 -74.41030 33468 ft 518 kts 113°
2026-04-27 14:11 -13.28678 -74.34263 33475 ft 518 kts 113°
2026-04-27 14:11 -13.31566 -74.27527 33478 ft 519 kts 113°
2026-04-27 14:12 -13.34466 -74.20752 33472 ft 519 kts 113°
2026-04-27 14:12 -13.37362 -74.13962 33463 ft 519 kts 113°
2026-04-27 14:13 -13.40251 -74.07172 33451 ft 519 kts 113°
2026-04-27 14:13 -13.43109 -74.00432 33437 ft 519 kts 113°
2026-04-27 14:14 -13.45988 -73.93640 33426 ft 518 kts 113°
2026-04-27 14:14 -13.48868 -73.86844 33427 ft 518 kts 113°
2026-04-27 14:15 -13.51735 -73.80060 33422 ft 518 kts 113°
2026-04-27 14:15 -13.54595 -73.73255 33419 ft 518 kts 113°
2026-04-27 14:16 -13.57437 -73.66502 33436 ft 518 kts 112°
2026-04-27 14:16 -13.60388 -73.59749 33492 ft 519 kts 117°
2026-04-27 14:17 -13.64351 -73.53546 33548 ft 519 kts 125°
2026-04-27 14:17 -13.67915 -73.47114 33588 ft 518 kts 110°
2026-04-27 14:18 -13.70144 -73.40140 33628 ft 519 kts 118°
2026-04-27 14:18 -13.73366 -73.33534 33617 ft 518 kts 104°
2026-04-27 14:19 -13.74222 -73.26216 33617 ft 516 kts 90°
2026-04-27 14:19 -13.74156 -73.18838 33567 ft 516 kts 87°
2026-04-27 14:20 -13.73545 -73.11498 33505 ft 515 kts 83°
2026-04-27 14:20 -13.72661 -73.04244 33447 ft 514 kts 78°
2026-04-27 14:21 -13.71335 -72.97025 33406 ft 514 kts 78°
2026-04-27 14:21 -13.70024 -72.89801 33414 ft 514 kts 78°
2026-04-27 14:22 -13.68356 -72.82667 33410 ft 513 kts 74°
2026-04-27 14:22 -13.67233 -72.75508 33425 ft 514 kts 88°
2026-04-27 14:23 -13.67055 -72.68145 33422 ft 514 kts 88°
2026-04-27 14:23 -13.66967 -72.64467 33264 ft 516 kts 88°
2026-04-27 14:23 -13.66869 -72.60775 32902 ft 517 kts 88°
2026-04-27 14:23 -13.66764 -72.57091 32447 ft 517 kts 88°
2026-04-27 14:24 -13.66647 -72.53384 31915 ft 519 kts 88°
2026-04-27 14:24 -13.66527 -72.49730 31347 ft 520 kts 88°
2026-04-27 14:24 -13.66387 -72.46009 30740 ft 519 kts 88°
2026-04-27 14:24 -13.66244 -72.42356 30032 ft 505 kts 88°
2026-04-27 14:25 -13.66096 -72.38755 29293 ft 500 kts 88°
2026-04-27 14:25 -13.65953 -72.35246 28587 ft 484 kts 88°
2026-04-27 14:25 -13.65806 -72.31815 27897 ft 481 kts 88°
2026-04-27 14:25 -13.65661 -72.28382 27236 ft 481 kts 88°
2026-04-27 14:26 -13.65511 -72.24942 26605 ft 480 kts 88°
2026-04-27 14:26 -13.65363 -72.21525 25987 ft 478 kts 88°
2026-04-27 14:26 -13.65212 -72.18167 25372 ft 476 kts 88°
2026-04-27 14:26 -13.65062 -72.14782 24751 ft 473 kts 88°
2026-04-27 14:27 -13.64945 -72.11407 24116 ft 471 kts 90°
2026-04-27 14:27 -13.64995 -72.08055 23388 ft 468 kts 91°
2026-04-27 14:27 -13.65054 -72.05847 22930 ft 465 kts 91°
2026-04-27 14:27 -13.65178 -72.02044 22173 ft 460 kts 91°
2026-04-27 14:28 -13.65109 -71.98774 21525 ft 455 kts 87°
2026-04-27 14:28 -13.64962 -71.95541 20867 ft 451 kts 87°
2026-04-27 14:28 -13.64828 -71.92354 19939 ft 454 kts 87°
2026-04-27 14:28 -13.64692 -71.89108 19117 ft 454 kts 87°
2026-04-27 14:29 -13.64555 -71.85905 18343 ft 441 kts 87°
2026-04-27 14:29 -13.64424 -71.82818 17490 ft 422 kts 87°
2026-04-27 14:29 -13.64290 -71.79864 16858 ft 405 kts 87°
2026-04-27 14:29 -13.64159 -71.77023 16266 ft 391 kts 87°
2026-04-27 14:30 -13.64033 -71.74278 15704 ft 378 kts 87°
2026-04-27 14:30 -13.63911 -71.71624 15198 ft 366 kts 87°
2026-04-27 14:30 -13.63793 -71.69106 15208 ft 340 kts 87°
2026-04-27 14:30 -13.63681 -71.66786 15194 ft 319 kts 87°
2026-04-27 14:31 -13.63573 -71.64573 15172 ft 301 kts 87°
2026-04-27 14:31 -13.63474 -71.62492 15147 ft 283 kts 87°
2026-04-27 14:31 -13.63370 -71.60524 15121 ft 268 kts 87°
2026-04-27 14:31 -13.63234 -71.58671 15089 ft 252 kts 79°
2026-04-27 14:32 -13.62478 -71.57132 14983 ft 238 kts 41°
2026-04-27 14:32 -13.61055 -71.56471 14828 ft 220 kts
2026-04-27 14:32 -13.59684 -71.56932 14935 ft 207 kts 319°
2026-04-27 14:32 -13.58939 -71.58188 14979 ft 211 kts 291°
2026-04-27 14:33 -13.58696 -71.59654 15088 ft 212 kts 266°
2026-04-27 14:33 -13.59185 -71.61118 15126 ft 225 kts 236°
2026-04-27 14:33 -13.60288 -71.62304 15192 ft 235 kts 222°
2026-04-27 14:33 -13.61523 -71.63441 15261 ft 243 kts 222°
2026-04-27 14:34 -13.62753 -71.64583 15297 ft 229 kts 223°
2026-04-27 14:34 -13.63882 -71.65645 15376 ft 213 kts 224°
2026-04-27 14:34 -13.64598 -71.66938 14921 ft 220 kts 264°
2026-04-27 14:34 -13.64284 -71.68484 14259 ft 229 kts 298°
2026-04-27 14:35 -13.63576 -71.69954 13530 ft 235 kts 292°
2026-04-27 14:35 -13.63062 -71.71551 13070 ft 230 kts 289°
2026-04-27 14:35 -13.62595 -71.73027 13050 ft 206 kts 289°
2026-04-27 14:35 -13.62175 -71.74360 13053 ft 186 kts 289°
2026-04-27 14:36 -13.61741 -71.75556 13010 ft 175 kts 297°
2026-04-27 14:36 -13.61039 -71.76606 12785 ft 183 kts 312°
2026-04-27 14:36 -13.60185 -71.77561 12821 ft 179 kts 313°
2026-04-27 14:36 -13.59366 -71.78557 12767 ft 187 kts 308°
2026-04-27 14:37 -13.58582 -71.79722 12553 ft 208 kts 303°
2026-04-27 14:37 -13.57834 -71.80976 12365 ft 207 kts 301°
2026-04-27 14:37 -13.57114 -71.82242 12125 ft 203 kts 300°
2026-04-27 14:37 -13.56451 -71.83495 11978 ft 195 kts 299°
2026-04-27 14:38 -13.55754 -71.84681 11691 ft 193 kts 304°
2026-04-27 14:38 -13.55030 -71.85831 11443 ft 190 kts 301°
2026-04-27 14:38 -13.54453 -71.87025 11310 ft 185 kts 291°
2026-04-27 14:38 -13.54151 -71.88303 11143 ft 185 kts 277°
2026-04-27 14:39 -13.54008 -71.89625 10992 ft 189 kts 276°
2026-04-27 14:39 -13.53871 -71.90961 10869 ft 186 kts 277°
2026-04-27 14:39 -13.53737 -71.92247 10772 ft 183 kts 276°
2026-04-27 14:39 -13.53611 -71.93465 10780 ft 144 kts 275°
2026-04-27 14:40 -13.53539 -71.94219 10818 ft 59 kts 276°
2026-04-27 14:40 -13.53581 -71.94342 10818 ft 13 kts 189°
2026-04-27 14:40 -13.53649 -71.94337 10819 ft 8 kts 142°
2026-04-27 14:40 -13.53670 -71.94291 10820 ft 6 kts 121°
2026-04-27 14:41 -13.53703 -71.94267 10820 ft 6 kts 139°
2026-04-27 14:41 -13.53718 -71.94243 10820 ft 0 kts 113°
2026-04-27 14:41 -13.53719 -71.94242 10820 ft 1 kts 121°
2026-04-27 14:41 -13.53723 -71.94233 10820 ft 3 kts 114°
2026-04-27 14:42 -13.53728 -71.94223 10820 ft 0 kts 114°
2026-04-27 14:42 -13.53728 -71.94222 10820 ft 0 kts 114°